Simultaneous Nadir Overpasses (SNOs) Predictions

Prediction of SNOs between GOES-16 and NOAA-20 Satellite Orbit:

Table of predicted SNOs for the next 14.0 days since TLE Epoch: 3/22/2019
Index Date Time (GOES-16) GOES-16 Lat,Lon NOAA-20 Lat,Lon Distance(km) Time Diff (sec)
1 03/23/2019 18:17:13 0.02, -75.21 0.55, -72.73 281.51 80
2 03/25/2019 06:39:01 -0.02, -75.21 0.59, -78.01 319.49 80
3 03/26/2019 06:17:37 -0.02, -75.21 -0.44, -73.49 197.41 80
4 03/27/2019 18:39:33 0.02, -75.23 -0.75, -78.79 405.20 80
5 03/28/2019 18:23:28 0.02, -75.24 0.22, -74.25 112.22 80
6 03/30/2019 06:45:16 -0.02, -75.25 0.91, -79.53 487.35 80
7 03/31/2019 06:23:51 -0.01, -75.27 -0.06, -74.99 30.46 80
8 04/02/2019 18:27:02 0.00, -75.31 -0.10, -75.78 52.74 80
9 04/03/2019 18:10:58 0.00, -75.33 0.93, -71.25 465.59 80
10 04/05/2019 06:32:45 -0.00, -75.35 0.26, -76.52 132.52 80




NCC Satellite Simultaneous Nadir Overpasses (SNOs) Prediction Service
